Torna al catalogo

DELTA 2 R/B

AttivoVLEO
NORAD 27872·ROCKET BODY·🇺🇸 United States

Lanciato Aug 25, 2003 da Cape Canaveral Space Force Station

Loading…

Prossimi Passaggi (prossime 24 ore)

TLE

ObsoletoSource: Space-Track

Epoca: Aug 25, 2003, 06:16 UTC

1 27872U 03038B   03237.26117166 +.00001068 -33762-5 +00000-0 0  9997
2 27872 031.4831 218.4721 0014323 289.3337 338.6175 16.42059481000004

Traccia DELTA 2 R/B in tempo reale con AllMySat

Download on the App Store